リニア-ニート彗星

204P/LINEAR-NEAT (2022)

English version
Home page
Updated on December 18, 2022

---------------------------------------------------------------------

・ プロフィール

・ 写真集

・ 軌道要素

Epoch 2022 Aug. 9.0 TT = JDT 2459800.5
T 2022 Nov. 16.86022 TT                                 Rudenko
q   1.8343987            (2000.0)            P               Q
n   0.14543283     Peri.  356.64458     -0.26162643     -0.95900193
a   3.5811932      Node   108.50020     +0.88817836     -0.28339158
e   0.4877688      Incl.    6.59622     +0.37774436     +0.00212316
P   6.78
From 1281 observations 2001 Oct. 13-2022 Aug. 23, mean residual 0".7.
     Nongravitational parameters A1 = +0.22, A2 = -0.0208.

・ 星図

・ 光度変化

        m1 = 9.5 + 5 logΔ + 25 log r(t - 50)

---------------------------------------------------------------------

軌道要素はM.P.E.C. 2022-Q139に掲載されたものです。
星図はステラナビゲータ Ver.10 (アストロアーツ) で作成したものです。
光度グラフはComet for Windowsで作成したものです。

---------------------------------------------------------------------

Copyright(C) Seiichi Yoshida (comet@aerith.net). All rights reserved.